Regional Weather Roundup
Issued by NWS

Home | Current Version | Previous Version | Text Only | Print | Product List | Glossary On
Versions: 1 2 3 4 5 6 7 8 9 10 11 12 13 14 15 16 17 18 19 20 21 22 23 24 25 26 27 28 29 30 31 32 33 34 35 36 37 38 39 40 41 42 43 44 45 46 47 48 49 50
000
ASUS43 KDTX 261801
RWRMI
MICHIGAN HOURLY REGIONAL WEATHER ROUNDUP
NATIONAL WEATHER SERVICE DETROIT/PONTIAC MI
200 PM EDT TUE MAY 26 2015

NOTE: "FAIR" INDICATES FEW OR NO CLOUDS BELOW 12,000 FEET WITH NO
SIGNIFICANT WEATHER AND/OR OBSTRUCTION TO VISIBILITY.

MIZ047>049-052>055-059>063-066>070-074>076-081>083-261900-
SOUTHEAST LOWER MICHIGAN

CITY           SKY/WX    TMP DP  RH WIND       PRES   REMARKS
ADRIAN         PTSUNNY   82  64  54 S15G22    29.98F
6HR MIN TEMP:  65; 6HR MAX TEMP:  82;

ALMA           PTSUNNY   77  67  70 S13G18    29.95F
ANN ARBOR      PTSUNNY   79  65  62 S10       29.99F
BAD AXE        PTSUNNY   81  62  51 S13G23    29.97F
CARO           MOSUNNY   80  65  61 SW14G21   29.97F
DETROIT CITY   MOSUNNY   79  64  60 S15G21    30.01F
6HR MIN TEMP:  68; 6HR MAX TEMP:  80;

DETROIT        PTSUNNY   83  65  54 SE13G18   30.00F
6HR MIN TEMP:  68; 6HR MAX TEMP:  83;

FLINT          PTSUNNY   80  65  59 S14G24    29.98F
6HR MIN TEMP:  70; 6HR MAX TEMP:  80;

GROSSE ILE     MOSUNNY   77  66  69 SE7       30.00F
HILLSDALE      PTSUNNY   82  64  55 S13       29.97F
6HR MIN TEMP:  65; 6HR MAX TEMP:  83;

HOWELL         MOSUNNY   79  65  60 S16       29.98F
6HR MIN TEMP:  65; 6HR MAX TEMP:  79;


CITY           SKY/WX    TMP DP  RH WIND       PRES   REMARKS
JACKSON        PTSUNNY   79  65  62 S16       29.97F
6HR MIN TEMP:  66; 6HR MAX TEMP:  80;

LAMBERTVILLE   MOSUNNY   82  63  51 SW8       29.99F
LANSING        MOSUNNY   79  65  62 S15G23    29.96F
6HR MIN TEMP:  67; 6HR MAX TEMP:  79;

LAPEER         PTSUNNY   78  63  60 S13G18    30.00F
MASON          PTSUNNY   76  66  69 S12       29.97F
MONROE         MOSUNNY   81  66  61 SE9       29.99F
MT. CLEMENS    MOSUNNY   80  66  62 SE15      29.99F
6HR MIN TEMP:  70; 6HR MAX TEMP:  80;

PONTIAC        PTSUNNY   78  64  61 S12       29.99F
6HR MIN TEMP:  66; 6HR MAX TEMP:  78;

PORT HOPE        N/A    N/A N/A N/A VRB6G16   29.95F
PORT HURON     MOSUNNY   79  64  61 S14G22    30.02F
TRI CITIES     PTSUNNY   80  65  59 S12       29.96F
6HR MIN TEMP:  69; 6HR MAX TEMP:  80;

MIDLAND        PTSUNNY   79  63  57 S13       29.94F
TROY           PTSUNNY   82  64  56 SW12G17   30.02F
SAGINAW HB     MOSUNNY   77  64  65 S12       29.96F
$$
MIZ043>046-050>051-056>058-064>065-071>073-077>080-261900-
SOUTHWEST LOWER MICHIGAN

CITY           SKY/WX    TMP DP  RH WIND       PRES   REMARKS
BATTLE CREEK   MOSUNNY   80  65  59 S20G25    29.93F
6HR MIN TEMP:  68; 6HR MAX TEMP:  81;

BENTON HARBOR  PTSUNNY   77  65  66 SE16G23   29.85F
6HR MIN TEMP:  67; 6HR MAX TEMP:  79;

BIG RAPIDS     PTSUNNY   74  64  69 SE10G18   29.92F
6HR MIN TEMP:  63; 6HR MAX TEMP:  74;

COLDWATER      MOSUNNY   81  64  55 S14G20    29.93F
6HR MIN TEMP:  65; 6HR MAX TEMP:  81;

FREMONT        FAIR      78  62  58 S8G16     29.88F HAZE
6HR MIN TEMP:  65; 6HR MAX TEMP:  78;

HOLLAND        PTSUNNY   80  66  62 SE22      29.87F
6HR MIN TEMP:  67; 6HR MAX TEMP:  80;

GRAND RAPIDS   PTSUNNY   78  65  63 S15       29.91F
6HR MIN TEMP:  67; 6HR MAX TEMP:  79;

IONIA          PTSUNNY   79  64  60 S15G21    29.92F
KALAMAZOO      PTSUNNY   81  65  58 S13G21    29.91F
6HR MIN TEMP:  68; 6HR MAX TEMP:  81;

LUDINGTON      CLOUDY    76  68  77 SE10G17   29.87F
6HR MIN TEMP:  71; 6HR MAX TEMP:  76;

MARSHALL       PTSUNNY   81  65  58 SE12G22   29.93F
MOUNT PLEASANT PTSUNNY   77  65  66 SE9G17    29.94F
6HR MIN TEMP:  67; 6HR MAX TEMP:  77;

MUSKEGON       PTSUNNY   79  63  57 SE18G24   29.86F
6HR MIN TEMP:  68; 6HR MAX TEMP:  81;

SOUTH HAVEN    PTSUNNY   78  64  63 SE10G20   29.87F
$$
MIZ016>042-261900-
NORTHERN LOWER MICHIGAN

CITY           SKY/WX    TMP DP  RH WIND       PRES   REMARKS
ALPENA         MOSUNNY   85  60  42 SW17G24   29.90F
6HR MIN TEMP:  69; 6HR MAX TEMP:  86;

BEAVER ISLAND  CLOUDY    67  57  69 W9        29.89S
6HR MIN TEMP:  64; 6HR MAX TEMP:  73;

BELLAIRE       MOSUNNY   82  62  51 S7        29.87F
6HR MIN TEMP:  67; 6HR MAX TEMP:  83;

CADILLAC       MOSUNNY   76  63  62 SE12G18   29.92F
CHARLEVOIX     MOSUNNY   80  65  62 SW10      29.90F
6HR MIN TEMP:  67; 6HR MAX TEMP:  80;

FRANKFORT      PTSUNNY   75  63  65 SE14      29.86F
GAYLORD        MOSUNNY   79  62  56 S13       29.91F
6HR MIN TEMP:  67; 6HR MAX TEMP:  80;

HARBOR SPRINGS MOSUNNY   79  66  63 SW6       29.87F
HOUGHTON LAKE  MOSUNNY   78  61  55 S14G21    29.94F
6HR MIN TEMP:  65; 6HR MAX TEMP:  79;

MANISTEE       CLOUDY    72  63  73 SE7G17    29.90S
OSCODA         MOSUNNY   81  63  55 S16G23    29.94F
PELLSTON       MOSUNNY   81  64  56 SW13      29.88F
6HR MIN TEMP:  68; 6HR MAX TEMP:  83;

ROGERS CITY    MOSUNNY   84  63  49 SW14      29.89F
TRAVERSE CITY  PTSUNNY   81  65  58 S7G17     29.86F
6HR MIN TEMP:  70; 6HR MAX TEMP:  81;

$$
MIZ007>008-015-261900-
EASTERN UPPER MICHIGAN

CITY           SKY/WX    TMP DP  RH WIND       PRES   REMARKS
KINROSS        CLOUDY    73  64  73 SW10G16   29.88F
6HR MIN TEMP:  61; 6HR MAX TEMP:  75;

MACKINAC ISLAN PTSUNNY   71  62  72 CALM      29.88F
6HR MIN TEMP:  63; 6HR MAX TEMP:  75;

NEWBERRY       CLOUDY    62  61  96 S15       29.88S FOG
6HR MIN TEMP:  53; 6HR MAX TEMP:  67;

S. S. MARIE    CLOUDY    75  64  68 S10G16    29.87F
6HR MIN TEMP:  58; 6HR MAX TEMP:  76;

$$
MIZ004>006-011>014-085-261900-
CENTRAL UPPER MICHIGAN

CITY           SKY/WX    TMP DP  RH WIND       PRES   REMARKS
MANISTIQUE     DRZL/FOG  51  50  96 SW8       29.87F VSB<1/4
6HR MIN TEMP:  46; 6HR MAX TEMP:  53;

ESCANABA       CLOUDY    59  52  77 SE6       29.84S
6HR MIN TEMP:  59; 6HR MAX TEMP:  66;

MENOMINEE      CLOUDY    66  61  82 SE13      29.81F
6HR MIN TEMP:  66; 6HR MAX TEMP:  75;

SAWYER-GWINN   CLOUDY    59  54  82 NE9       29.86R
$$
MIZ001>003-009>011-084-261900-
WESTERN UPPER MICHIGAN

CITY           SKY/WX    TMP DP  RH WIND       PRES   REMARKS
IRON MOUNTAIN  CLOUDY    73  63  70 NE5       29.82F
6HR MIN TEMP:  60; 6HR MAX TEMP:  73;

HOUGHTON       CLOUDY    59  52  77 N10       29.84F
6HR MIN TEMP:  50; 6HR MAX TEMP:  60;

COPPER HARBOR    N/A     52  48  86 N8        29.86S
6HR MIN TEMP:  46; 6HR MAX TEMP:  53;

IRONWOOD       CLOUDY    55  54  94 N8        29.81S
6HR MIN TEMP:  52; 6HR MAX TEMP:  57;

$$

ABBREVIATIONS USED IN REMARKS
   TC - TEMPERATURE IN CELSIUS
  WCI - WIND CHILL INDEX
   HX - HEAT INDEX
  VSB - VISIBILITY



USA.gov is the U.S. government's official web portal to all federal, state and local government web resources and services.